Brownsville, TX

8:16 PM CST on February 27, 2017 (GMT -0600)
Brownsville-South Padre I International

Weather History for KBRO - January, 2013

Change the Weather History Date:

Sunday, January 13, 2013

  Actual Average Record
Temperature  
Mean Temperature 63 °F 61 °F  
Max Temperature 74 °F 70 °F 85 °F (2000)
Min Temperature 52 °F 51 °F 24 °F (1912)
Degree Days  
Heating Degree Days 2 6  
Month to date heating degree days 90 78  
Since 1 July heating degree days 170 297  
Cooling Degree Days 0 2  
Month to date cooling degree days 17 26  
Year to date cooling degree days 17 26  
Growing Degree Days 12 (Base 50)    
Moisture  
Dew Point 52 °F    
Average Humidity 70    
Maximum Humidity 93    
Minimum Humidity 47    
Precipitation  
Precipitation T in 0.04 in 1.62 in (1994)
Month to date precipitation 1.45 0.47  
Year to date precipitation 1.45 0.47  
Sea Level Pressure  
Sea Level Pressure 29.93 in    
Wind  
Wind Speed 12 mph (NW)    
Max Wind Speed 25 mph    
Max Gust Speed 37 mph    
Visibility 9 miles    
Events Rain    
T = Trace of Precipitation, MM = Missing Value Source: NWS Daily Summary

Daily Weather History Graph

Daily Weather History Graph

Search for Another Location

Airport or City:

Trip Planner

Search our weather history database for the weather conditions in past years. The results will help you decide how hot, cold, wet, or windy it might be!

Date:

Astronomy

Jan. 13, 2013 Rise Set
Actual Time 7:18 AM CST 5:59 PM CST
Civil Twilight 6:53 AM CST 6:23 PM CST
Nautical Twilight 6:25 AM CST 6:52 PM CST
Astronomical Twilight 5:57 AM CST 7:20 PM CST
Moon 8:33 AM CST (1/13) 8:19 PM CST (1/13)
Length of Visible Light 11h 30m
Length of Day
10h 40m
Waxing Crescent, 5% of the Moon is Illuminated
Jan 13
Waxing Crescent
Jan 18
First Quarter
Jan 26
Full
Feb 3
Last Quarter
Feb 10
New

Hourly Weather History & Observations

Time (CST) Temp. Dew Point Humidity Pressure Visibility Wind Dir Wind Speed Gust Speed Precip Events Conditions
12:53 AM 73.9 °F 71.1 °F 91% 29.70 in 10.0 mi South 17.3 mph 26.5 mph N/A   Overcast
1:53 AM 73.9 °F 71.1 °F 91% 29.73 in 10.0 mi SSW 10.4 mph - N/A   Overcast
2:37 AM 73.4 °F 69.8 °F 88% 29.74 in 10.0 mi SSW 9.2 mph - N/A   Overcast
2:53 AM 73.9 °F 70.0 °F 87% 29.74 in 10.0 mi South 12.7 mph - N/A   Overcast
3:51 AM 73.4 °F 69.8 °F 88% 29.74 in 10.0 mi SSW 9.2 mph - N/A   Mostly Cloudy
3:53 AM 73.0 °F 70.0 °F 90% 29.74 in 10.0 mi SSW 10.4 mph - N/A   Mostly Cloudy
4:53 AM 73.0 °F 69.1 °F 87% 29.75 in 9.0 mi SSW 6.9 mph - N/A   Overcast
5:20 AM 71.6 °F 69.8 °F 94% 29.77 in 7.0 mi WSW 11.5 mph - 0.00 in Rain Light Rain
5:27 AM 71.6 °F 68.0 °F 88% 29.78 in 7.0 mi West 12.7 mph - 0.00 in   Overcast
5:34 AM 69.8 °F 68.0 °F 94% 29.78 in 6.0 mi West 15.0 mph 20.7 mph 0.00 in   Overcast
5:44 AM 68.0 °F 66.2 °F 94% 29.80 in 6.0 mi West 13.8 mph - 0.00 in   Overcast
5:53 AM 68.0 °F 66.0 °F 93% 29.80 in 7.0 mi WNW 15.0 mph - 0.00 in   Overcast
6:53 AM 57.9 °F 55.9 °F 93% 29.87 in 10.0 mi NNW 24.2 mph 34.5 mph 0.00 in Rain Light Rain
7:24 AM 55.4 °F 53.6 °F 94% 29.91 in 10.0 mi NNW 21.9 mph 35.7 mph 0.00 in   Overcast
7:51 AM 55.4 °F 53.6 °F 94% 29.94 in 10.0 mi NNW 15.0 mph 29.9 mph 0.00 in   Overcast
7:53 AM 55.0 °F 53.1 °F 93% 29.94 in 9.0 mi NNW 18.4 mph 29.9 mph 0.00 in   Overcast
8:01 AM 55.4 °F 51.8 °F 88% 29.95 in 8.0 mi NW 20.7 mph 31.1 mph 0.00 in Rain Light Rain
8:53 AM 53.1 °F 50.0 °F 89% 29.99 in 8.0 mi NNW 17.3 mph 27.6 mph 0.00 in Rain Light Rain
9:53 AM 53.1 °F 46.9 °F 80% 30.02 in 10.0 mi NNW 16.1 mph 25.3 mph 0.00 in   Overcast
10:53 AM 55.9 °F 45.0 °F 67% 30.04 in 10.0 mi North 12.7 mph 27.6 mph N/A   Overcast
11:53 AM 55.9 °F 42.1 °F 60% 30.04 in 10.0 mi NNW 17.3 mph 25.3 mph N/A   Overcast
12:06 PM 55.4 °F 42.8 °F 63% 30.03 in 10.0 mi NNW 13.8 mph 24.2 mph N/A   Overcast
12:53 PM 57.0 °F 39.9 °F 53% 30.01 in 10.0 mi NNW 13.8 mph 25.3 mph N/A   Overcast
1:53 PM 57.9 °F 39.9 °F 51% 30.02 in 10.0 mi NNW 13.8 mph 24.2 mph N/A   Overcast
2:53 PM 59.0 °F 39.9 °F 49% 30.02 in 10.0 mi North 12.7 mph 19.6 mph N/A   Overcast
3:53 PM 59.0 °F 39.0 °F 48% 30.02 in 10.0 mi NNW 16.1 mph 21.9 mph N/A   Overcast
4:53 PM 59.0 °F 39.0 °F 48% 30.01 in 10.0 mi North 6.9 mph - N/A   Overcast
5:53 PM 57.9 °F 39.9 °F 51% 30.04 in 10.0 mi North 10.4 mph 19.6 mph N/A   Overcast
6:53 PM 57.9 °F 42.1 °F 56% 30.05 in 10.0 mi North 6.9 mph 16.1 mph N/A   Overcast
7:53 PM 57.0 °F 44.1 °F 62% 30.06 in 10.0 mi North 3.5 mph - N/A   Overcast
8:53 PM 57.0 °F 39.0 °F 51% 30.07 in 10.0 mi North 8.1 mph - N/A   Overcast
9:53 PM 57.0 °F 39.0 °F 51% 30.07 in 10.0 mi NNW 8.1 mph - N/A   Overcast
10:17 PM 57.2 °F 39.2 °F 51% 30.07 in 10.0 mi NNW 9.2 mph - N/A   Overcast
10:53 PM 55.9 °F 39.0 °F 53% 30.06 in 10.0 mi NNW 8.1 mph - N/A   Overcast
11:53 PM 55.9 °F 39.9 °F 55% 30.06 in 10.0 mi North 9.2 mph - N/A   Overcast